sat.trackr.live / text

‹ back to catalog

STARLINK-33558

NORAD 63643 · 2025-083K

PAYLOAD ACTIVE UNKNOWN

§ Identity

Operator
Country
US
Launch date
2025-04-25
Launch site
AFETR
Launch vehicle
Mass (kg)
RCS (m²)

Purposes: comms

External: N2YO · Heavens-Above · Gunter

§ Orbital elements

Epoch: 2026-09-20T13:34:28.792992Z

Period
94.27 min
Inclination
43.0000°
Eccentricity
0.0000804
Mean motion
15.27586152 rev/d
Perigee alt
482.5 km
Apogee alt
483.6 km
Semi-major
6,861.2 km
B*
3.9760e-4
RAAN
344.3892°
Arg perigee
291.3413°
Mean anomaly
68.7352°
Rev number
7,987

§ Raw data

STARLINK-335581 63643U 25083K   26263.56561103  .00010697  00000+0  39760-3 0  99962 63643  43.0000 344.3892 0000804 291.3413  68.7352 15.27586152 79873

JSON: /api/v1/satellites/63643 · /tle

For live sub-satellite position, see the globe view (requires WebGL).

§ Visibility from observer

Set your observer location to see the next 7 days of passes ≥ 10°. The values pass through the URL so the page stays shareable.

No JS? Fill the form by hand. The geolocation button needs JavaScript.